Regional Weather Roundup
Issued by NWS

Home | Current Version | Previous Version | Text Only | Print | Product List | Glossary On
Versions: 1 2 3 4 5 6 7 8 9 10 11 12 13 14 15 16 17 18 19 20 21 22 23 24 25 26 27 28 29 30 31 32 33 34 35 36 37 38 39 40 41 42 43 44 45 46 47 48 49 50
000
ASCA44 KEWX 041920
RWRMX

LATIN AMERICA AND CARIBBEAN REGIONAL WEATHER ROUNDUP
NATIONAL WEATHER SERVICE AUSTIN/SAN ANTONIO TX
100 PM CST WED MAR 04 2015

NOTE: "FAIR" INDICATED FEW OR NO CLOUDS BELOW 12,000 FEET WITH NO
SIGNIFICANT WEATHER AND/OR OBSTRUCTIONS TO VISIBILITY.

BAJA CALIFORNIA

CITY           SKY/WX    TMP DP  RH WIND       PRES   REMARKS
LORETO         PTSUNNY   70  55  60 NE12      29.98F
LA PAZ         PTSUNNY   70  50  49 N7        30.03
MEXICALI       SUNNY     64  30  27 N13       30.10
S.J. DEL CABO  SUNNY     79  43  27 E16       29.97F
TIJUANA        SUNNY     64  37  36 NW3       30.10S

NORTHWESTERN MEXICO

CITY           SKY/WX    TMP DP  RH WIND       PRES   REMARKS
CULIACAN       CLOUDY    70  64  83 CALM      30.01
DURANGO        CLOUDY    68  36  30 S22       30.11F
GUAYMAS        MOSUNNY   68  52  56 CALM      29.97
HERMOSILLO     MOSUNNY   66  46  48 CALM      30.04
CD. JUAREZ     PTSUNNY   59  34  38 W15       29.90
LOS MOCHIS     MOSUNNY   72  46  40 NW14      30.00S
OBREGON        MOSUNNY   68  52  56 W5        29.97

NORTHEASTERN MEXICO

CITY           SKY/WX    TMP DP  RH WIND       PRES   REMARKS
CHIHUAHUA      PTSUNNY   70  34  26 SW22G35   29.90
MATAMOROS      CLOUDY    77  70  78 SE12      29.83
MONCLOVA       MOSUNNY   75  59  57 SE5       29.77F HAZE
MONTERREY      PTSUNNY   73  63  68 E9        29.80F
NUEVO LAREDO   CLOUDY    68  63  83 CALM      29.83
PIEDRAS NEGRAS CLOUDY    64  59  82 NW5       29.85F FOG
REYNOSA        PTSUNNY   77  61  57 S12       29.78
SALTILLO       PTSUNNY   86  50  28 SW9       29.96F
TORREON        PTSUNNY   77  48  36 S10       29.97F
CD. VICTORIA   SUNNY     84  63  48 S10       29.77F

WESTERN MEXICO

CITY           SKY/WX    TMP DP  RH WIND       PRES   REMARKS
AGUASCALIENTES MOSUNNY   73  19  13 SW14      30.17
COLIMA         MOSUNNY   84  54  34 SW12      29.98
DEL BAJIO      SUNNY     77  34  20 W10       30.23F
GUADALAJARA    MOSUNNY   79  32  18 W12       30.12
MANZANILLO     MOSUNNY   82  72  69 SW9       29.87F
MAZATLAN       CLOUDY    79  64  61 W12       29.94S
P. VALLARTA    CLOUDY    79  57  47 SW7       29.93F
URUAPAN        SUNNY     77  54  44 S7        30.14F
ZACATECAS      PTSUNNY   72  32  23 SW20G31   30.17F

CENTRAL MEXICO

CITY           SKY/WX    TMP DP  RH WIND       PRES   REMARKS
CUERNAVACA     MOSUNNY   82  41  23 S3        30.05F
MEXICO CITY    SUNNY     75  37  25 NE5       30.22F
MORELIA        SUNNY     77  45  31 SW6       30.16
POZA RICA      PTSUNNY   84  70  61 NE5       29.84F
PUEBLA         SUNNY     73  37  27 E5        30.23F
QUERETARO      SUNNY     73  41  31 W8        30.21F
S. LUIS POTOSI SUNNY     81  21  11 SW15      30.09F
TAMPICO        MOSUNNY   77  68  73 E8        29.78F
TOLUCA         MOSUNNY   72  28  20 NW10      30.30F

SOUTHERN MEXICO

CITY           SKY/WX    TMP DP  RH WIND       PRES   REMARKS
ACAPULCO       SUNNY     82  75  78 S9        29.85F
B. DE HUATULCO MOSUNNY   88  73  62 SW8       29.87  HX  96
OAXACA         SUNNY     82  39  21 SW7       30.11F
P. ESCONDIDO   SUNNY     81  73  78 W12       29.98F
VERACRUZ       SUNNY     84  68  58 E10       29.78F
ZIHUATANEJO    SUNNY     84  66  54 SW12      29.86F

YUCATAN PENINSULA

CITY           SKY/WX    TMP DP  RH WIND       PRES   REMARKS
CAMPECHE       MOSUNNY   91  63  38 E15G26    29.84F HX  92
CANCUN         MOSUNNY   82  70  65 SE22      29.98F
CHETUMAL       MOSUNNY   82  73  74 SE14      29.93F
CD. DEL CARMEN SUNNY     90  68  48 SE18      29.83  HX  93
COZUMEL        MOSUNNY   81  70  69 E16       29.98F
MERIDA         PTSUNNY   93  64  38 SE14      29.88F HX  95
MINATITLAN     SUNNY     86  77  74 E8        29.74  HX  97
TAPACHULA      MOSUNNY   90  72  55 W17       29.84F HX  96
TUX. GUTIERREZ SUNNY     90  57  33 E9        29.86F
VILLAHERMOSA   SUNNY     88  68  51 E8        29.83F HX  91

CENTRAL AMERICA

CITY           SKY/WX    TMP DP  RH WIND       PRES   REMARKS
BELIZE CITY    PTSUNNY   86  73  66 E9        29.93F HX  93
MANAGUA        PTCLDY    91  63  38 E23       29.80F HX  92

CARIBBEAN

CITY           SKY/WX    TMP DP  RH WIND       PRES   REMARKS
ARUBA          MOSUNNY   82  77  83 E18       29.86F HX  91
CURACAO        MOSUNNY   84  73  70 E16       29.89F HX  91
KINGSTON       MOSUNNY   88  66  48 SE28      29.94F HX  90
NASSAU         MOSUNNY   79  66  65 SE12      30.14F
SAN JUAN       MOSUNNY   82  70  65 E18G30    30.07F
SANTO DOMINGO  MOSUNNY   86  72  62 SE16      30.03F HX  92
ST. KITTS      MOSUNNY   84  68  58 NE23      30.03S
ST. MAARTEN    PTSUNNY   81  66  61 E22       30.06S

$$



USA.gov is the U.S. government's official web portal to all federal, state and local government web resources and services.